Flag for Mauritania Weather past 2 weeks in Nouakchott, Mauritania

Now
82 °F

Scattered clouds.


Feels Like: 86 °F
Forecast: 76 / 85 °F
Wind: 10 mph from West

Location: Nouakchott Airport

Current Time: Jul 25, 2014 at 11:46:13 AM

Latest Report: Jul 25, 2014 at 11:00 AM


Visibility: 5 mi

Pressure: 29.89 "Hg

Humidity: 66%

Dew point: 70 °F

Location of NouakchottLocation

Historic Weather in Nouakchott — Graph

°F

Nouakchott temperature yesterday

Maximum temperature yesterday: 84 °F (at 2:00 PM)
Minimum temperature yesterday: 77 °F (at 2:30 AM)
Average temperature yesterday: 79 °F

Past Weeks' High & Low Weather Summary

 TemperatureHumidityPressure
High111 °F (Jul 13, 2:00 PM)94% (Jul 20, 6:30 AM)30.07 "Hg (Jul 20, 6:30 AM)
Low73 °F (Jul 12, 6:00 AM)12% (Jul 13, 2:00 PM)29.77 "Hg (Jul 13, 5:30 PM)
Average80 °F69%29.91 "Hg
* Reported Jul 10 11:00 AM — Jul 25 11:00 AM, Nouakchott, Weather by CustomWeather, © 2014

Note: Actual official high and low records may vary slightly from our data, if they occured in-between our weather recording intervals... More about our weather records

Advertising

Nouakchott weather history for previous 24 hours

 ConditionsComfort  
Time TempWeatherWind HumidityBarometerVisibility
11:00 AM
Jul 25
82 °FScattered clouds.10 mph66%29.89 "Hg5 mi
10:30 AM82 °FScattered clouds.8 mph66%29.89 "Hg5 mi
10:00 AM81 °FScattered clouds.6 mph70%29.89 "Hg5 mi
9:30 AM82 °FScattered clouds.2 mph66%29.89 "Hg5 mi
9:00 AM81 °FScattered clouds.1 mph74%29.89 "Hg5 mi
8:30 AM79 °FScattered clouds.2 mph79%29.89 "Hg5 mi
8:00 AM77 °FScattered clouds.5 mph83%29.86 "Hg5 mi
7:30 AM75 °FScattered clouds.3 mph89%29.86 "Hg5 mi
7:00 AM75 °FScattered clouds.2 mph83%29.86 "Hg5 mi
6:30 AM75 °FPassing clouds.3 mph83%29.83 "Hg5 mi
6:00 AM75 °FPassing clouds.6 mph83%29.83 "Hg5 mi
5:30 AM75 °FPassing clouds.6 mph89%29.83 "Hg5 mi
5:03 AM75 °FPassing clouds.6 mph83%29.83 "Hg5 mi
4:30 AM77 °FPassing clouds.7 mph79%29.83 "Hg5 mi
4:00 AM77 °FPassing clouds.7 mph79%29.83 "Hg5 mi
3:30 AM77 °FPassing clouds.6 mph79%29.86 "Hg5 mi
3:00 AM77 °FPassing clouds.8 mph79%29.86 "Hg5 mi
2:30 AM77 °FPassing clouds.8 mph79%29.86 "Hg5 mi
2:00 AM77 °FPassing clouds.9 mph79%29.89 "Hg5 mi
1:30 AM77 °FPassing clouds.9 mph79%29.89 "Hg5 mi
1:00 AM77 °FPassing clouds.9 mph79%29.92 "Hg5 mi
12:30 AM77 °FPassing clouds.9 mph79%29.92 "Hg4 mi
12:00 AM77 °FPassing clouds.9 mph79%29.92 "Hg4 mi
11:30 PM
Jul 24
77 °FPassing clouds.8 mph74%29.95 "Hg4 mi
11:00 PM77 °FPassing clouds.9 mph74%29.95 "Hg4 mi
10:30 PM77 °FPassing clouds.9 mph74%29.92 "Hg4 mi
10:00 PM77 °FPassing clouds.9 mph74%29.92 "Hg4 mi
9:30 PM77 °FPassing clouds.10 mph74%29.92 "Hg4 mi
9:00 PM77 °FPassing clouds.9 mph74%29.92 "Hg4 mi
8:30 PM79 °FPassing clouds.10 mph70%29.92 "Hg4 mi
8:00 PM79 °FPassing clouds.10 mph70%29.89 "Hg4 mi
7:30 PM79 °FPartly sunny.9 mph74%29.89 "Hg4 mi
7:00 PM79 °FPartly sunny.12 mph74%29.89 "Hg4 mi
6:30 PM81 °FScattered clouds.10 mph70%29.89 "Hg4 mi
6:00 PM81 °FScattered clouds.13 mph70%29.86 "Hg4 mi
5:30 PM82 °FScattered clouds.12 mph62%29.86 "Hg4 mi
5:00 PM82 °FScattered clouds.14 mph62%29.86 "Hg4 mi
4:30 PM82 °FScattered clouds.14 mph62%29.89 "Hg4 mi
4:00 PM82 °FScattered clouds.14 mph62%29.89 "Hg4 mi
3:30 PM82 °FWarm.14 mph62%29.89 "HgN/A
3:00 PM84 °FScattered clouds.12 mph58%29.89 "Hg4 mi
2:30 PM84 °FScattered clouds.12 mph58%29.89 "Hg4 mi
2:00 PM84 °FScattered clouds.14 mph55%29.92 "Hg4 mi
1:30 PM82 °FScattered clouds.13 mph62%29.92 "Hg4 mi
1:00 PM82 °FScattered clouds.13 mph62%29.95 "Hg4 mi
12:30 PM82 °FScattered clouds.13 mph62%29.95 "Hg4 mi
12:00 PM82 °FScattered clouds.14 mph62%29.95 "Hg4 mi
11:30 AM82 °FScattered clouds.15 mph62%29.95 "Hg4 mi
11:00 AM81 °FScattered clouds.13 mph66%29.98 "Hg4 mi
Weather by CustomWeather, © 2014

See weather overviewHow to use our weather pages